FW4395 Weather Reports


time (UTC)temp
F
wind
direction
speed
knots
gust
knots
rain 1hr
in
rain 24hr
in
rain mn
in
humidity
%
barometer
mb
20260504050505 50 342 10.4 17.4 0.00 0.00 0.00 51 1015.2
20260504050004 50 347 7.8 13.9 0.00 0.00 0.00 50 1015.0
20260504045505 50 7 1.7 10.4 0.00 0.00 0.00 50 1015.0
20260504045004 50 31 6.1 13.9 0.00 0.00 0.00 49 1014.8
20260504044505 50 343 6.1 14.8 0.00 0.00 0.00 49 1014.8
20260504044005 50 347 7.8 14.8 0.00 0.00 0.00 49 1014.7
20260504043504 50 349 8.7 18.2 0.00 0.00 0.00 49 1014.6
20260504042505 51 3 2.6 7.8 0.00 0.00 0.00 47 1014.5
20260504042004 51 48 2.6 5.2 0.00 0.00 0.00 46 1014.3
20260504041505 51 353 4.3 8.7 0.00 0.00 0.00 46 1014.2
20260504040504 51 42 1.7 5.2 0.00 0.00 0.00 44 1014.1
20260504040004 51 12 1.7 6.1 0.00 0.00 0.00 44 1014.0
20260504035505 51 15 0.9 1.7 0.00 0.00 0.00 44 1013.8
20260504035004 51 348 1.7 5.2 0.00 0.00 0.00 43 1013.7
20260504034005 52 61 0.9 2.6 0.00 0.00 0.00 42 1013.4
20260504033504 52 65 1.7 4.3 0.00 0.00 0.00 42 1013.3
20260504033004 52 54 2.6 8.7 0.00 0.00 0.00 41 1013.1
20260504032505 52 69 5.2 7.8 0.00 0.00 0.00 41 1013.0
20260504031505 53 52 4.3 11.3 0.00 0.00 0.00 40 1012.8
20260504031004 53 63 3.5 7.8 0.00 0.00 0.00 40 1012.7
20260504030504 53 62 3.5 8.7 0.00 0.00 0.00 40 1012.5
20260504025504 54 51 2.6 4.3 0.00 0.00 0.00 40 1012.4
20260504025005 54 68 2.6 5.2 0.00 0.00 0.00 40 1012.2
20260504024504 54 75 1.7 5.2 0.00 0.00 0.00 40 1012.0
20260504024004 54 60 5.2 7.8 0.00 0.00 0.00 39 1011.9
20260504023505 55 61 4.3 7.8 0.00 0.00 0.00 40 1011.8
20260504023004 55 56 1.7 5.2 0.00 0.00 0.00 40 1011.8
20260504022504 55 65 0.9 4.3 0.00 0.00 0.00 39 1011.6
20260504022005 56 60 1.7 2.6 0.00 0.00 0.00 38 1011.6
20260504021504 56 53 2.6 6.1 0.00 0.00 0.00 38 1011.5
20260504021004 56 44 4.3 7.0 0.00 0.00 0.00 38 1011.6
20260504020504 56 51 2.6 7.0 0.00 0.00 0.00 38 1011.5
20260504015504 57 64 2.6 6.1 0.00 0.00 0.00 37 1011.2
20260504015004 57 65 2.6 10.4 0.00 0.00 0.00 38 1011.0
20260504014504 58 50 6.1 15.6 0.00 0.00 0.00 36 1010.9
20260504014004 58 52 7.8 13.9 0.00 0.00 0.00 36 1010.7
20260504013504 59 68 7.0 12.2 0.00 0.00 0.00 36 1010.7
20260504013004 60 57 4.3 10.4 0.00 0.00 0.00 36 1010.5
20260504012505 60 54 5.2 10.4 0.00 0.00 0.00 36 1010.4
20260504012004 61 59 4.3 10.4 0.00 0.00 0.00 35 1010.3
20260504011505 61 60 4.3 8.7 0.00 0.00 0.00 35 1010.3
20260504011004 62 57 7.0 13.0 0.00 0.00 0.00 35 1010.3
20260504010504 62 61 2.6 5.2 0.00 0.00 0.00 36 1010.2
20260504010005 62 47 4.3 7.8 0.00 0.00 0.00 35 1010.1
20260504005504 63 66 3.5 12.2 0.00 0.00 0.00 35 1010.1
20260504005005 63 60 2.6 7.0 0.00 0.00 0.00 34 1010.0
20260504004504 64 57 2.6 7.0 0.00 0.00 0.00 34 1009.9
20260504003504 65 59 1.7 8.7 0.00 0.00 0.00 34 1009.8
20260504003004 66 75 1.7 7.0 0.00 0.00 0.00 35 1009.8
20260504002004 65 341 12.2 19.1 0.00 0.00 0.00 33 1009.6
20260504001504 66 353 7.8 18.2 0.00 0.00 0.00 34 1009.6
20260504001004 66 347 15.6 24.3 0.00 0.00 0.00 33 1009.5
20260504000504 66 333 9.6 15.6 0.00 0.00 0.00 34 1009.5
20260504000004 66 345 10.4 19.1 0.00 0.00 0.00 32 1009.5
20260503235504 66 353 6.1 14.8 0.00 0.00 0.00 33 1009.5
20260503235004 67 346 2.6 14.8 0.00 0.00 0.00 32 1009.5
20260503234005 67 10 1.7 7.8 0.00 0.00 0.00 32 1009.5
20260503233504 66 1 4.3 17.4 0.00 0.00 0.00 33 1009.5
20260503233004 66 352 12.2 20.9 0.00 0.00 0.00 32 1009.5
20260503232505 66 347 7.8 17.4 0.00 0.00 0.00 31 1009.5
20260503232004 66 4 4.3 15.6 0.00 0.00 0.00 32 1009.4
20260503231505 67 19 1.7 7.0 0.00 0.00 0.00 32 1009.5
20260503231004 67 20 2.6 6.1 0.00 0.00 0.00 31 1009.4
20260503230504 68 5 2.6 12.2 0.00 0.00 0.00 31 1009.4
20260503225505 69 357 2.6 11.3 0.00 0.00 0.00 30 1009.4
20260503225004 69 33 2.6 13.9 0.00 0.00 0.00 31 1009.3
20260503224504 69 346 4.3 14.8 0.00 0.00 0.00 29 1009.4
20260503224004 70 359 2.6 13.0 0.00 0.00 0.00 30 1009.3
20260503222504 70 54 2.6 10.4 0.00 0.00 0.00 31 1009.3
20260503222005 69 13 3.5 13.9 0.00 0.00 0.00 31 1009.3
20260503221504 68 57 8.7 14.8 0.00 0.00 0.00 31 1009.2
20260503221004 70 67 6.1 14.8 0.00 0.00 0.00 29 1009.2
20260503220504 71 60 6.1 12.2 0.00 0.00 0.00 28 1009.1
20260503220004 71 36 6.1 18.2 0.00 0.00 0.00 26 1009.1
20260503215505 70 353 7.0 13.0 0.00 0.00 0.00 25 1009.1
20260503214504 71 45 1.7 12.2 0.00 0.00 0.00 26 1009.1
20260503214005 71 337 11.3 15.6 0.00 0.00 0.00 25 1009.2
20260503213504 70 331 8.7 12.2 0.00 0.00 0.00 24 1009.2
20260503213005 70 5 4.3 13.0 0.00 0.00 0.00 29 1009.3
20260503212504 70 340 11.3 17.4 0.00 0.00 0.00 25 1009.3
20260503212005 71 333 6.1 13.0 0.00 0.00 0.00 24 1009.3
20260503211505 71 339 6.1 11.3 0.00 0.00 0.00 25 1009.2
20260503211004 69 332 4.3 7.8 0.00 0.00 0.00 26 1009.4
20260503210504 70 342 5.2 10.4 0.00 0.00 0.00 26 1009.4
20260503210005 70 11 5.2 12.2 0.00 0.00 0.00 27 1009.5
20260503205504 70 332 4.3 13.9 0.00 0.00 0.00 26 1009.5
20260503205004 71 46 2.6 7.8 0.00 0.00 0.00 25 1009.5
20260503204504 71 25 3.5 12.2 0.00 0.00 0.00 26 1009.5
20260503204004 70 8 6.1 10.4 0.00 0.00 0.00 25 1009.6
20260503203504 69 356 4.3 11.3 0.00 0.00 0.00 26 1009.6
20260503203004 70 1 7.8 13.9 0.00 0.00 0.00 25 1009.5
20260503202504 70 328 3.5 7.8 0.00 0.00 0.00 25 1009.5
20260503202004 70 345 4.3 14.8 0.00 0.00 0.00 26 1009.6
20260503201504 69 338 7.8 15.6 0.00 0.00 0.00 27 1009.7
20260503201004 69 353 7.0 14.8 0.00 0.00 0.00 27 1009.7
20260503200004 69 337 5.2 11.3 0.00 0.00 0.00 28 1009.8
20260503195504 69 59 4.3 8.7 0.00 0.00 0.00 28 1009.8
20260503195005 69 2 3.5 10.4 0.00 0.00 0.00 28 1009.9
20260503193505 67 65 4.3 7.8 0.00 0.00 0.00 30 1010.0
20260503193004 67 66 2.6 7.8 0.00 0.00 0.00 28 1010.2
20260503192504 67 70 2.6 12.2 0.00 0.00 0.00 26 1010.3
20260503191505 68 335 2.6 5.2 0.00 0.00 0.00 26 1010.4
20260503191005 68 7 2.6 7.8 0.00 0.00 0.00 27 1010.5
20260503190504 67 313 5.2 12.2 0.00 0.00 0.00 25 1010.4
20260503190004 67 337 6.1 10.4 0.00 0.00 0.00 26 1010.6
20260503185004 67 354 7.0 14.8 0.00 0.00 0.00 27 1010.7
20260503184505 66 320 7.0 13.0 0.00 0.00 0.00 26 1010.7
20260503184004 66 32 5.2 12.2 0.00 0.00 0.00 27 1010.8
20260503183504 66 319 7.8 12.2 0.00 0.00 0.00 28 1010.8
20260503183004 66 31 1.7 8.7 0.00 0.00 0.00 29 1011.0
20260503182505 66 355 5.2 14.8 0.00 0.00 0.00 28 1011.1
20260503182005 66 18 4.3 8.7 0.00 0.00 0.00 28 1011.0
20260503181505 65 320 2.6 8.7 0.00 0.00 0.00 28 1011.1
20260503180504 65 39 7.0 15.6 0.00 0.00 0.00 29 1011.3
20260503180005 65 40 4.3 13.9 0.00 0.00 0.00 30 1011.3
20260503175504 66 342 6.1 17.4 0.00 0.00 0.00 28 1011.3
20260503175004 66 352 2.6 13.0 0.00 0.00 0.00 29 1011.4
20260503174504 66 358 2.6 8.7 0.00 0.00 0.00 30 1011.5
20260503174004 65 338 5.2 18.2 0.00 0.00 0.00 29 1011.5
20260503173504 65 323 13.9 18.2 0.00 0.00 0.00 26 1011.5
20260503172504 65 337 12.2 20.0 0.00 0.00 0.00 25 1011.7
20260503172004 65 322 8.7 13.9 0.00 0.00 0.00 26 1011.8
20260503171504 64 335 15.6 19.1 0.00 0.00 0.00 25 1011.9
20260503170504 64 338 10.4 15.6 0.00 0.00 0.00 28 1012.0
20260503151004 58 270 10.4 13.0 0.00 0.00 0.00 34 1012.3
20260503150503 57 269 11.3 13.9 0.00 0.00 0.00 34 1012.5
20260503131004 48 295 0.9 2.6 0.00 0.00 0.00 42 1012.5
20260503130504 47 235 0.9 2.6 0.00 0.00 0.00 42 1012.6
20260503110504 49 301 5.2 7.0 0.00 0.00 0.00 36 1013.2
20260503090504 49 289 5.2 7.0 0.00 0.00 0.00 36 1013.2
20260503081503 50 312 5.2 8.7 0.00 0.00 0.00 34 1013.2
20260503080504 50 300 6.1 7.8 0.00 0.00 0.00 34 1013.2
20260503072505 49 298 5.2 8.7 0.00 0.00 0.00 36 1013.4
20260503071505 48 301 5.2 7.0 0.00 0.00 0.00 36 1013.4
20260503071005 48 301 5.2 7.0 0.00 0.00 0.00 37 1013.3
20260503070505 48 298 4.3 7.0 0.00 0.00 0.00 36 1013.2